Aeroporto :
LOGIN :

Iscrizione | Disclaimer

   EN    FR    IT 

 










Sommario :    VFR   VFR Marginale   IFR   IFR Intensivo   IFR Molto Intensivo
Visibilità : 
Base nubi : 
>= 8 km
>= 3000ft
5 / 8 km
1000 / 3000 ft
1500m / 5 km
500 / 1000 ft
800 / 1500m
200 / 500 ft
< 800m
< 200 ft
Simboli :   Temporali  Nebbia  Neve Forte  Precipitazioni Forti  Vento > 20 kt
SIGMETs :   Varie  Temporali  Ghiacco  Turbolenza  Onda orograficha  Ceneri Vulcaniche







- Altitudine del aeroporto : 289 ft
- Carte del aeroporto


LFYR - Romorantin Pruniers

ULTIMO METAR :
  • 251500Z AUTO 05010KT 350V090 CAVOK 19/00 Q1032 BECMG 05015G25KT

METARs OBSOLETI :
  • 251430Z AUTO 06012KT 360V090 CAVOK 19/00 Q1032 BECMG 05015G25KT
  • 251400Z AUTO 03009KT 340V090 CAVOK 19/00 Q1032 TEMPO 05015G25KT
  • 251330Z AUTO 05010G23KT 330V090 CAVOK 19/00 Q1032 NOSIG
  • 251300Z AUTO 06011KT 010V090 CAVOK 19/01 Q1033 TEMPO 05015G25KT
  • 251230Z AUTO 06012KT 030V090 CAVOK 19/02 Q1033 TEMPO 05015G25KT

Previsioni scadute.
Nessun NOTAM noto per questo aeroporto.



MetMap, La meteo Aeronautica in un colpo d'occhio ! - Copyright ORBIFLY Dicembre 2007 - Disclaimer

ORBIFLY MET'MAP TEAM :

Programmazione e sviluppo : Alexandra Zaïnal
Concezione e sviluppo : Baudouin d'Aumeries
Co-Programmazione e sviluppo : Marc-Olivier Méhu
Supporto tecnico e logistico : Manuel Goepfert
Aiuto per la traduzione : Arnaldo La Scala

Contatto : metmap@orbifly.com




FONTI E CREDITI :

   NOAA